Doha, Qatar

11:28 AM +03 on December 14, 2017 (GMT +0300)
Doha International

Weather History for OTBD - May, 2014

Change the Weather History Date:

Wednesday, May 7, 2014

  Actual Average Record
Temperature  
Mean Temperature 89 °F -  
Max Temperature 101 °F 102 °F 111 °F (2000)
Min Temperature 77 °F 78 °F 71 °F (2011)
Cooling Degree Days 24    
Growing Degree Days 39 (Base 50)    
Moisture  
Dew Point 61 °F    
Average Humidity 48    
Maximum Humidity 83    
Minimum Humidity 8    
Precipitation  
Precipitation 0.00 in 0.00 in - ()
Sea Level Pressure  
Sea Level Pressure 29.78 in    
Wind  
Wind Speed 5 mph ()    
Max Wind Speed 13 mph    
Max Gust Speed -    
Visibility 6.0 miles    
Events      
Averages and records for this station are not official NWS values.
T = Trace of Precipitation, MM = Missing Value Source: Averaged Metar Reports

Daily Weather History Graph

Daily Weather History Graph

Search for Another Location

Airport or City:

Trip Planner

Search our weather history database for the weather conditions in past years. The results will help you decide how hot, cold, wet, or windy it might be!

Date:

Astronomy

May. 07, 2014 Rise Set
Actual Time 4:53 AM +03 6:07 PM +03
Civil Twilight 4:29 AM +03 6:31 PM +03
Nautical Twilight 4:00 AM +03 7:00 PM +03
Astronomical Twilight 3:30 AM +03 7:30 PM +03
Moon 11:33 AM +03 (5/7) No Moon Set
Length of Visible Light 14h 02m
Length of Day
13h 13m
First Quarter, 52% of the Moon is Illuminated
May 7
First Quarter
May 14
Full
May 21
Last Quarter
May 28
New
Jun 5
First Quarter

Hourly Weather History & Observations

Time (+03) Temp. Heat Index Dew Point Humidity Pressure Visibility Wind Dir Wind Speed Gust Speed Precip Events Conditions
12:00 AM 80 °F - 73 °F 74% 29.81 in 7 mi ENE 1.2 mph - -  
12:00 AM 80.6 °F 85.4 °F 73.4 °F 79% 29.80 in - ENE 1.2 mph - N/A   Clear
12:30 AM 78.8 °F - 73.4 °F 83% 29.80 in - Calm Calm - N/A   Clear
1:00 AM 78.8 °F - 71.6 °F 78% 29.80 in - Variable 1.2 mph - N/A   Clear
1:30 AM 78.8 °F - 71.6 °F 78% 29.80 in - Variable 1.2 mph - N/A   Clear
2:00 AM 78.8 °F - 73.4 °F 83% 29.77 in - Variable 2.3 mph - N/A   Clear
3:00 AM 79 °F - 70 °F 67% 29.79 in 7 mi SW 3.5 mph - -  
3:00 AM 78.8 °F - 69.8 °F 74% 29.77 in - SW 3.5 mph - N/A   Clear
3:30 AM 78.8 °F - 69.8 °F 74% 29.77 in - SW 3.5 mph - N/A   Clear
4:00 AM 78.8 °F - 69.8 °F 74% 29.77 in - SW 3.5 mph - N/A   Clear
4:30 AM 77.0 °F - 69.8 °F 78% 29.80 in - SW 4.6 mph - N/A   Clear
5:00 AM 78.8 °F - 69.8 °F 74% 29.80 in - WSW 4.6 mph - N/A   Clear
5:30 AM 78.8 °F - 68.0 °F 69% 29.80 in - WSW 6.9 mph - N/A   Clear
6:00 AM 79 °F - 65 °F 53% 29.81 in 7 mi WSW 8.1 mph - -   Clear
6:00 AM 78.8 °F - 64.4 °F 61% 29.80 in - WSW 8.1 mph - N/A   Clear
6:30 AM 80.6 °F 81.8 °F 62.6 °F 54% 29.80 in 5.6 mi WSW 5.8 mph - N/A   Unknown
7:00 AM 82.4 °F 82.9 °F 60.8 °F 48% 29.80 in 5.0 mi SW 6.9 mph - N/A   Unknown
7:30 AM 86.0 °F 85.4 °F 59.0 °F 40% 29.80 in 5.0 mi SW 8.1 mph - N/A   Unknown
8:00 AM 87.8 °F 87.1 °F 59.0 °F 38% 29.83 in - SW 6.9 mph - N/A   Unknown
9:00 AM 92 °F - 52 °F 17% 29.83 in 6 mi SSW 5.8 mph - -   Scattered Clouds
9:00 AM 93.2 °F - 51.8 °F 24% 29.83 in - SSW 5.8 mph - N/A   Clear
9:30 AM 95.0 °F - 48.2 °F 20% 29.83 in - SSW 5.8 mph - N/A   Clear
10:00 AM 96.8 °F - 42.8 °F 16% 29.80 in - SSW 6.9 mph - N/A   Clear
10:30 AM 98.6 °F - 44.6 °F 16% 29.80 in - Variable 5.8 mph - N/A   Clear
11:00 AM 100.4 °F - 44.6 °F 15% 29.80 in - Variable 2.3 mph - N/A   Clear
11:30 AM 100.4 °F - 44.6 °F 15% 29.80 in - East 9.2 mph - N/A   Clear
12:00 PM 99 °F - 44 °F 8% 29.81 in 7 mi East 10.4 mph - -   Scattered Clouds
12:00 PM 98.6 °F - 44.6 °F 16% 29.80 in - East 10.4 mph - N/A   Clear
12:30 PM 96.8 °F - 50.0 °F 20% 29.77 in - ESE 10.4 mph - N/A   Clear
1:00 PM 96.8 °F - 46.4 °F 18% 29.77 in - ESE 11.5 mph - N/A   Clear
1:30 PM 96.8 °F - 48.2 °F 19% 29.77 in - ESE 12.7 mph - N/A   Clear
2:00 PM 95.0 °F - 48.2 °F 20% 29.77 in - ESE 10.4 mph - N/A   Clear
2:30 PM 95.0 °F - 44.6 °F 18% 29.74 in - ESE 10.4 mph - N/A   Clear
3:00 PM 96 °F - 46 °F 11% 29.76 in 9 mi ESE 11.5 mph - -   Scattered Clouds
3:00 PM 96.8 °F - 46.4 °F 18% 29.74 in - ESE 11.5 mph - N/A   Clear
4:00 PM 95.0 °F - 51.8 °F 23% 29.74 in - SE 9.2 mph - N/A   Clear
4:30 PM 93.2 °F - 50.0 °F 23% 29.74 in - SE 8.1 mph - N/A   Clear
5:00 PM 95.0 °F - 44.6 °F 18% 29.74 in - SE 9.2 mph - N/A   Clear
6:00 PM 92 °F - 56 °F 20% 29.76 in 7 mi NE 6.9 mph - -   Clear
6:00 PM 91.4 °F 89.4 °F 55.4 °F 29% 29.74 in - NE 6.9 mph - N/A   Clear
6:30 PM 86.0 °F 93.4 °F 73.4 °F 66% 29.74 in - NE 6.9 mph - N/A   Clear
7:00 PM 86.0 °F 93.4 °F 73.4 °F 66% 29.77 in - ENE 4.6 mph - N/A   Clear
8:00 PM 86.0 °F 95.1 °F 75.2 °F 70% 29.77 in - ENE 4.6 mph - N/A   Clear
9:00 PM 83 °F - 77 °F 77% 29.78 in 5 mi ENE 5.8 mph - -   Haze
9:00 PM 84.2 °F 94.1 °F 77.0 °F 79% 29.77 in 5.0 mi ENE 5.8 mph - N/A   Unknown
9:30 PM 84.2 °F 92.3 °F 75.2 °F 74% 29.77 in 5.0 mi East 5.8 mph - N/A   Unknown
10:00 PM 82.4 °F 89.5 °F 75.2 °F 79% 29.77 in 5.0 mi East 4.6 mph - N/A   Unknown
10:30 PM 82.4 °F 89.5 °F 75.2 °F 79% 29.77 in 5.0 mi East 4.6 mph - N/A   Unknown
11:00 PM 82.4 °F 89.5 °F 75.2 °F 79% 29.74 in 5.6 mi ESE 4.6 mph - N/A   Unknown
11:30 PM 82.4 °F 86.3 °F 69.8 °F 66% 29.74 in 5.6 mi SE 3.5 mph - N/A   Unknown